Regional Weather Roundup
Issued by NWS

Home | Current Version | Previous Version | Text Only | Print | Product List | Glossary On
Versions: 1 2 3 4 5 6 7 8 9 10 11 12 13 14 15 16 17 18 19 20 21 22 23 24 25 26 27 28 29 30 31 32 33 34 35 36 37 38 39 40 41 42 43 44 45 46 47 48 49 50
000
ASCA42 TJSJ 281210
RWRPR
PUERTO RICO/U.S. VIRGIN ISLANDS HOURLY WEATHER ROUNDUP
NATIONAL WEATHER SERVICE SAN JUAN PR
800 AM AST SUN MAY 28 2017

PRZ001>002-007>008-010-281300-
PUERTO RICO

CITY           SKY/WX    TMP DP  RH WIND       PRES   REMARKS
SAN JUAN LMM   MOSUNNY   82  72  69 E6        30.03R
AGUADILLA      SUNNY     79  70  73 E8        30.04R
CEIBA          MOSUNNY   82  72  69 E10       30.05S
$$

VIZ001>002-281300-
U.S. VIRGIN ISLANDS

CITY           SKY/WX    TMP DP  RH WIND       PRES   REMARKS
CHARLOTTE AMA  SUNNY     86  73  66 E10       30.02S HX  93
CHRISTIANSTED  MOSUNNY   82  73  74 E12       30.03R
$$

HOURLY WEATHER ROUNDUP FOR THE NEWS MEDIA

CITY           SKY/WX    TMP DP  RH WIND       PRES   REMARKS
ORLANDO        PTSUNNY   73  70  90 NW7       30.02R
NEW YORK       CLOUDY    61  59  93 E3        29.95R
NEWARK         PTSUNNY   60  57  89 E6        29.94R FOG
CHICAGO        CLOUDY    60  56  86 SE6       29.72S
HARTFORD       CLOUDY    56  51  84 S5        29.98R
BOSTON         PTSUNNY   59  54  83 SW6       29.98R
DALLAS         CLOUDY    72  68  87 NE7       29.88R
PHILADELPHIA   PTSUNNY   67  61  81 CALM      29.93R
LOS ANGELES    PTCLDY    58  56  93 S6        30.00R
WASHINGTON DC  PTSUNNY   63  60  90 CALM      29.88S FOG


USA.gov is the U.S. government's official web portal to all federal, state and local government web resources and services.